Location: Lombard
(41.8800°N, 88.0080°W)
Time: 11:45:00
(UTC-05:00)

A-11 Canister half - Pass Details

Date: 03 February 2023
Orbit: 1512 x 1687 km, 47.2° (Epoch: 20 March)

Event Time Altitude Azimuth Distance (km) Brightness Sun altitude
Rises 08:11:21 0° 181° (S) 4,883 12.1 10.5°
Reaches altitude 10° 08:15:53 10° 164° (SSE) 3,872 12.1 11.2°
Maximum altitude 08:21:52 18° 125° (SE) 3,236 13.7 12.1°
Drops below altitude 10° 08:27:44 10° 87° (E) 3,798 12.0 13.0°
Sets 08:32:04 0° 70° (ENE) 4,754 12.1 13.6°
